sat.trackr.live / text

‹ back to catalog

GPS BIIRM-4 (PRN 15)

NORAD 32260 · 2007-047A

PAYLOAD ACTIVE UNKNOWN

§ Identity

Operator
Country
US
Launch date
2007-10-17
Launch site
AFETR
Launch vehicle
Mass (kg)
RCS (m²)
9.27

Purposes: earth_obs, nav

External: N2YO · Heavens-Above · Gunter

§ Orbital elements

Epoch: 2026-05-24T18:58:37.598016Z

Period
718.00 min
Inclination
54.0788°
Eccentricity
0.0165818
Mean motion
2.00556397 rev/d
Perigee alt
19,742.4 km
Apogee alt
20,623.3 km
Semi-major
26,561.0 km
B*
0.0000e+0
RAAN
81.0295°
Arg perigee
86.9308°
Mean anomaly
274.9410°
Rev number
13,634

§ Raw data

GPS BIIRM-4 (PRN 15)1 32260U 07047A   26144.79071294 -.00000031  00000+0  00000+0 0  99902 32260  54.0788  81.0295 0165818  86.9308 274.9410  2.00556397136346

JSON: /api/v1/satellites/32260 · /tle

For live sub-satellite position, see the globe view (requires WebGL).

§ Visibility from observer

Set your observer location to see the next 7 days of passes ≥ 10°. The values pass through the URL so the page stays shareable.

No JS? Fill the form by hand. The geolocation button needs JavaScript.